Location: Hac?musa Deresi
(39.1694°N, 32.2508°E)
Time: 14:45:23
(UTC+00:00)

ATLAS 3B R/B - Pass Details

Date: 22 April 2026
Orbit: 937 x 1257 km, 63.8° (Epoch: 11 May)

Event Time Altitude Azimuth Distance (km) Brightness Sun altitude
Rises 20:56:52 0° 330° (NNW) 4,207 6.7 -37.0°
Reaches altitude 10° 21:00:11 10° 341° (NNW) 3,221 5.9 -37.1°
Maximum altitude 21:06:49 29° 40° (NE) 2,044 4.3 -37.5°
Enters shadow 21:08:29 27° 62° (ENE) 2,120 4.3 -37.5°
